Content
SEND FEEDBACK

Daily
Averages
Monthly
Summary
United States of America

DUNSMUIR, CALIFORNIA


Home > North America > United States > California
Elevation: 3289 feet     Latitude: 41 12N     Longitude: 122 16W

WEATHER
 
SELECT A DAY
Number of Records: 231,561;   Date Range: 1/1/95 - 9/16/14
 
SHARE

PRINT THIS DATA

[ ← Previous Day ]
WEATHER ALMANAC - FEBRUARY 8, 2013
[ Next Day → ]
[ °C ]   °F
Weather ElementAverageHighLow
Temperature31.5 °F39.9 °F (3:56 pm)28.4 °F (7:26 am)
Dewpoint24.8 °F28.9 °F (12:56 am)19.9 °F (3:56 pm)
Humidity77.2 %93 % (1:03 am)45 % (3:56 pm)
Barometer30.03 in30.17 in (11:56 pm)29.93 in (12:12 am)
Wind Speed5.6 mph18.4 mph (7:56 pm)
Wind Gust32.2 mph (7:56 pm)
Weather ElementAverage
Visibility7.1 mi
Wind DirectionESE (109.3 °)

Weather ElementTotal
Precipitation0.19 in
Heating Degree Days30.9 (Base 65)
Averaged from 46 records on February 8, 2013
WEATHER CONDITIONS BREAKOUT
WIND DIRECTION BREAKOUT
WEATHER BY HOUR - FEBRUARY 8, 2013
[ °C ]   °F
Local TimeTemperatureDewpointHumidityBarometerVisibilityWind DirectionWind SpeedGust SpeedPrecipitationEventsConditions
12:12 AM32.0 °F28.4 °F87 %29.93 in1.0 miCalm0.01 inSnowLight Snow
12:19 AM32.0 °F28.4 °F87 %29.93 in0.5 miCalm0.02 inFog-SnowSnow
12:56 AM30.9 °F28.9 °F92 %30.02 in0.8 miCalm0.10 inSnowLight Snow
1:03 AM30.2 °F28.4 °F93 %29.93 in1.5 miCalm0.00 inSnowLight Snow
1:13 AM30.2 °F28.4 °F93 %29.93 in2.0 miCalm0.00 inSnowLight Snow
1:26 AM30.2 °F28.4 °F93 %29.93 in2.0 miCalm0.00 inSnowLight Snow
1:34 AM32.0 °F28.4 °F87 %29.93 in1.8 miCalm0.01 inSnowLight Snow
1:45 AM32.0 °F28.4 °F87 %29.93 in0.8 miCalm0.01 inSnowLight Snow
1:54 AM30.2 °F28.4 °F93 %29.93 in1.5 miVariable3.5 mph0.02 inSnowLight Snow
1:56 AM30.9 °F28.0 °F89 %30.02 in2.0 miCalm0.02 inSnowLight Snow
2:11 AM30.2 °F26.6 °F86 %29.93 in5.0 miVariable4.6 mph0.00 inSnowLight Snow
2:21 AM30.2 °F26.6 °F86 %29.93 in8.0 miVariable3.5 mph0.00 inOvercast
2:40 AM30.2 °F26.6 °F86 %29.93 in3.0 miVariable4.6 mph0.00 inSnowLight Snow
2:47 AM30.2 °F26.6 °F86 %29.93 in2.0 miVariable4.6 mph0.00 inSnowLight Snow
2:50 AM30.2 °F28.4 °F93 %29.93 in2.0 miVariable5.8 mph0.00 inSnowLight Snow
2:56 AM30.9 °F28.0 °F89 %30.03 in3.0 miVariable4.6 mph0.00 inSnowLight Snow
3:52 AM30.2 °F26.6 °F86 %29.94 in7.0 miNW (320°)4.6 mph0.00 inOvercast
3:56 AM30.9 °F27.0 °F85 %30.04 in8.0 miNW (310°)6.9 mph0.00 inOvercast
4:18 AM30.2 °F26.6 °F86 %29.95 in9.0 miCalmOvercast
4:32 AM30.2 °F26.6 °F86 %29.95 in10.0 miVariable4.6 mphOvercast
4:56 AM30.0 °F26.1 °F85 %30.06 in10.0 miVariable6.9 mphOvercast
5:00 AM30.2 °F26.6 °F86 %29.96 in10.0 miVariable5.8 mphOvercast
5:56 AM30.0 °F25.0 °F82 %30.06 in10.0 miVariable3.5 mphOvercast
6:06 AM30.2 °F24.8 °F80 %29.96 in10.0 miVariable3.5 mphOvercast
6:56 AM30.0 °F23.0 °F75 %30.07 in9.0 miCalmOvercast
7:26 AM28.4 °F23.0 °F80 %29.97 in7.0 miNNW (330°)9.2 mphScattered Clouds
7:56 AM30.0 °F23.0 °F75 %30.09 in10.0 miVariable4.6 mphMostly Cloudy
8:13 AM28.4 °F23.0 °F80 %29.98 in10.0 miVariable4.6 mphScattered Clouds
8:56 AM30.0 °F23.0 °F75 %30.12 in8.0 miWNW (300°)12.7 mph26.5 mphClear
9:56 AM33.1 °F23.0 °F66 %30.12 in10.0 miWNW (300°)11.5 mph26.5 mphClear
10:56 AM33.1 °F23.0 °F66 %30.13 in10.0 miWNW (290°)10.4 mph27.6 mphClear
11:56 AM36.0 °F24.1 °F62 %30.12 in10.0 miWNW (300°)15.0 mph26.5 mphClear
12:56 PM37.9 °F23.0 °F55 %30.09 in10.0 miNW (320°)8.1 mphPartly Cloudy
1:56 PM39.0 °F24.1 °F55 %30.09 in10.0 miWNW (300°)9.2 mph17.3 mphScattered Clouds
2:56 PM37.0 °F21.9 °F54 %30.09 in10.0 miWNW (300°)5.8 mphMostly Cloudy
3:56 PM39.9 °F19.9 °F45 %30.09 in10.0 miNNW (340°)9.2 mphOvercast
4:56 PM35.1 °F21.0 °F57 %30.12 in10.0 miVariable6.9 mphMostly Cloudy
5:56 PM34.0 °F21.0 °F59 %30.14 in10.0 miVariable6.9 mphOvercast
6:56 PM33.1 °F21.0 °F61 %30.14 in10.0 miNorth (350°)12.7 mph24.2 mphOvercast
7:56 PM33.1 °F21.0 °F61 %30.13 in10.0 miNNW (340°)18.4 mph32.2 mphClear
8:56 PM30.9 °F21.0 °F67 %30.14 in10.0 miNW (310°)15.0 mph32.2 mphClear
9:56 PM30.0 °F21.0 °F69 %30.14 in10.0 miWNW (300°)11.5 mph26.5 mphClear
10:42 PM30.2 °F21.2 °F69 %30.06 in10.0 miCalmMostly Cloudy
10:56 PM30.0 °F21.0 °F69 %30.16 in10.0 miVariable5.8 mphOvercast
11:45 PM28.4 °F21.2 °F74 %30.06 in10.0 miVariable6.9 mphMostly Cloudy
11:56 PM28.9 °F21.0 °F72 %30.17 in10.0 miNW (320°)8.1 mphScattered Clouds
Hourly data recorded from KMHS, located miles away from Dunsmuir, California







STORIES FROM OUR PARTNERS